This demonstration page uses our WeatherBlox Daily Observations layout. Learn more.

Left ArrowRight Arrow

Hourly Observations for July 28, 2015

Temp ( °F °C ) Dew Point ( °F °C ) Humidity (%) Winds ( mph kmh ) Pressure ( in mb ) Visibility ( mi km ) Precip ( " mm )
12:51 am 00:51 Clear 81 27.2 47 8.3 30 30 WNW 7 11 29.73 1007 10 16.0934 N/A
1:51 am 01:51 Clear 79 26.1 48 8.9 34 34 NW 7 11 29.73 1007 10 16.0934 N/A
2:51 am 02:51 Clear 78 25.6 46 7.8 32 32 WNW 7 11 29.73 1007 10 16.0934 N/A
3:51 am 03:51 Clear 79 26.1 47 8.3 32 32 NW 9 15 29.74 1007 10 16.0934 N/A
4:51 am 04:51 Clear 81 27.2 48 8.9 32 32 NNW 8 13 29.77 1008 10 16.0934 N/A
5:51 am 05:51 Mostly Sunny 77 25 48 8.9 36 36 SE 5 7 29.81 1009 10 16.0934 N/A
6:51 am 06:51 Sunny 80 26.7 53 11.7 39 39 N N/A 29.83 1010 10 16.0934 N/A
7:51 am 07:51 Sunny 82 27.8 55 12.8 40 40 N N/A 29.84 1010 10 16.0934 N/A
8:51 am 08:51 Sunny 87 30.6 52 11.1 30 30 WNW 5 7 29.82 1010 10 16.0934 N/A
9:51 am 09:51 Sunny 91 32.8 72 22.2 54 54 NW 9 15 29.94 1014 10 16.0934 N/A
10:51 am 10:51 Sunny 91 32.8 54 12.2 28 28 VRB 3 6 29.81 1010 10 16.0934 N/A
11:51 am 11:51 Sunny 92 33.3 52 11.1 26 26 N N/A 29.8 1009 10 16.0934 N/A
12:51 pm 12:51 Sunny 96 35.6 50 10 21 21 E 10 17 29.78 1008 10 16.0934 N/A
1:51 pm 13:51 Sunny 99 37.2 48 8.9 18 18 SE 9 15 29.75 1007 10 16.0934 N/A
2:51 pm 14:51 Sunny 98 36.7 47 8.3 17 17 VRB 7 11 29.72 1006 10 16.0934 N/A
3:51 pm 15:51 Sunny 98 36.7 47 8.3 17 17 SSW 7 11 29.7 1006 10 16.0934 N/A
4:51 pm 16:51 Sunny 66 18.9 31 -0.6 27 27 NW 8 13 30.13 1020 10 16.0934 N/A
5:51 pm 17:51 Sunny 94 34.4 51 10.6 23 23 WNW 9 15 29.71 1006 10 16.0934 N/A
6:51 pm 18:51 Sunny 93 33.9 52 11.1 25 25 NW 10 17 29.73 1007 10 16.0934 N/A
7:51 pm 19:51 Mostly Cloudy 91 32.8 54 12.2 28 28 WNW 13 20 29.76 1008 10 16.0934 N/A
8:51 pm 20:51 Mostly Cloudy 90 32.2 54 12.2 29 29 WNW 12 19 29.78 1009 10 16.0934 N/A
9:51 pm 21:51 Mostly Cloudy 86 30 56 13.3 36 36 NNW 16 26 29.81 1009 10 16.0934 N/A
10:20 pm 22:20 Mostly Clear with Nearby Thunderstorms 84 28.9 57 13.9 40 40 NNW 17 28 29.77 1008 10 16.0934 N/A
10:35 pm 22:35 Partly Cloudy 84 28.9 57 13.9 40 40 NNW 16 26 29.77 1008 10 16.0934 N/A
10:51 pm 22:51 Mostly Cloudy 85 29.4 56 13.3 37 37 NW 15 24 29.82 1010 10 16.0934 N/A
11:51 pm 23:51 Partly Cloudy 83 28.3 58 14.4 43 43 WNW 15 24 29.84 1011 10 16.0934 N/A

Powered by AerisWeather